TimePDT,TemperatureF,Dew PointF,Humidity,Sea Level PressureIn,VisibilityMPH,Wind Direction,Wind SpeedMPH,Gust SpeedMPH,PrecipitationIn,Events,Conditions,WindDirDegrees,DateUTC
12:53 AM,48.9,48.0,97,29.97,7.0,Calm,Calm,-,N/A,,Clear,0,2013-08-06 07:53:00
1:53 AM,46.9,46.0,97,29.98,6.0,Calm,Calm,-,N/A,,Clear,0,2013-08-06 08:53:00
2:53 AM,45.0,45.0,100,29.98,6.0,Calm,Calm,-,N/A,,Clear,0,2013-08-06 09:53:00
3:53 AM,45.0,44.1,97,29.98,5.0,Calm,Calm,-,N/A,,Clear,0,2013-08-06 10:53:00
4:39 AM,46.4,44.6,93,29.98,3.0,Calm,Calm,-,N/A,,Scattered Clouds,0,2013-08-06 11:39:00
4:41 AM,46.4,44.6,93,29.98,1.8,Calm,Calm,-,N/A,,Mostly Cloudy,0,2013-08-06 11:41:00
4:53 AM,48.0,46.9,96,29.98,0.5,Calm,Calm,-,N/A,Fog,Fog,0,2013-08-06 11:53:00
5:53 AM,50.0,50.0,100,30.00,0.5,Calm,Calm,-,N/A,Fog,Fog,0,2013-08-06 12:53:00
6:53 AM,50.0,50.0,100,30.01,0.2,East,4.6,-,N/A,Fog,Fog,100,2013-08-06 13:53:00
7:53 AM,50.0,50.0,100,30.02,0.2,ESE,4.6,-,N/A,Fog,Fog,110,2013-08-06 14:53:00
8:53 AM,52.0,51.1,97,30.03,0.5,ESE,4.6,-,N/A,Fog,Fog,120,2013-08-06 15:53:00
9:53 AM,53.1,52.0,96,30.03,1.2,SE,5.8,-,N/A,,Overcast,130,2013-08-06 16:53:00
10:53 AM,55.0,51.1,86,30.04,1.0,SE,5.8,-,N/A,,Overcast,130,2013-08-06 17:53:00
11:17 AM,57.2,51.8,82,30.03,2.0,SE,5.8,-,N/A,,Haze,140,2013-08-06 18:17:00
11:24 AM,57.2,51.8,82,30.03,1.2,SE,6.9,-,N/A,,Haze,130,2013-08-06 18:24:00
11:46 AM,55.4,51.8,88,30.03,3.0,ESE,6.9,-,N/A,,Haze,110,2013-08-06 18:46:00
11:53 AM,57.0,51.1,81,30.03,6.0,ESE,5.8,-,N/A,,Haze,120,2013-08-06 18:53:00
12:13 PM,59.0,51.8,77,30.03,10.0,ESE,5.8,-,N/A,,Scattered Clouds,120,2013-08-06 19:13:00
12:53 PM,59.0,51.1,75,30.02,10.0,ESE,3.5,-,N/A,,Clear,120,2013-08-06 19:53:00
1:53 PM,62.1,52.0,70,30.01,10.0,ESE,4.6,-,N/A,,Clear,110,2013-08-06 20:53:00
2:53 PM,64.0,52.0,65,30.01,10.0,ESE,3.5,-,N/A,,Clear,120,2013-08-06 21:53:00
3:53 PM,64.9,52.0,63,29.99,10.0,ESE,3.5,-,N/A,,Clear,120,2013-08-06 22:53:00
4:53 PM,64.0,52.0,65,29.98,10.0,ESE,3.5,-,N/A,,Clear,110,2013-08-06 23:53:00
5:53 PM,66.0,52.0,60,29.96,10.0,Calm,Calm,-,N/A,,Clear,0,2013-08-07 00:53:00
6:53 PM,62.1,52.0,70,29.95,10.0,Calm,Calm,-,N/A,,Clear,0,2013-08-07 01:53:00
7:53 PM,57.0,51.1,81,29.94,10.0,Calm,Calm,-,N/A,,Clear,0,2013-08-07 02:53:00
8:53 PM,53.1,50.0,89,29.95,10.0,Calm,Calm,-,N/A,,Clear,0,2013-08-07 03:53:00
9:53 PM,51.1,48.9,92,29.96,10.0,Calm,Calm,-,N/A,,Clear,0,2013-08-07 04:53:00
10:53 PM,48.9,48.0,97,29.95,10.0,Calm,Calm,-,N/A,,Clear,0,2013-08-07 05:53:00
11:53 PM,48.9,48.0,97,29.96,10.0,Calm,Calm,-,N/A,,Clear,0,2013-08-07 06:53:00